Location: Acts Church of Fort Worth
(32.6786°N, 97.2668°W)
Time: 21:50:51
(UTC+00:00)

CZ-3C R/B - Pass Details

Date: 18 January 2026
Orbit: 291 x 31871 km, 20.7° (Epoch: 10 February)

Event Time Altitude Azimuth Distance (km) Brightness Sun altitude
Exits shadow 10:17:11 24° 154° (SSE) 2,204 3.9 -40.4°
Drops below altitude 10° 10:26:57 10° 115° (ESE) 6,245 6.7 -38.3°
Sets 10:41:03 0° 107° (ESE) 11,522 8.5 -35.4°
